Total_Precipitation_Accumulation
0.07 0.07 0.09 0.08 0.09 0.05 0.09 0.12 0.11 0.08 0.07 0.03 0.03 0.09 0.10 0.19 0.23 0.29 0.24 0.13 0.12 0.21 0.48 0.15 0.04 0.04 0.25 0.39 0.23 0.27 0.47 0.25 0.01 0.05 0.01 0.00 0.00 0.00 0.00 0.00 0.00 0.00 0.02 0.05 0.02
0.07 0.08 0.08 0.10 0.11 0.04 0.08 0.13 0.17 0.08 0.10 0.04 0.01 0.06 0.11 0.17 0.23 0.27 0.27 0.13 0.09 0.22 0.42 0.30 0.08 0.04 0.20 0.43 0.38 0.36 0.36 0.08 0.01 0.01 0.04 0.03 0.00 0.00 0.00 0.00 0.01 0.05 0.03 0.05 0.10
0.08 0.07 0.09 0.11 0.11 0.05 0.07 0.10 0.22 0.12 0.10 0.05 0.01 0.01 0.09 0.08 0.15 0.16 0.19 0.16 0.19 0.24 0.28 0.26 0.10 0.05 0.12 0.30 0.43 0.16 0.11 0.02 0.03 0.05 0.17 0.05 0.01 0.00 0.00 0.00 0.01 0.04 0.06 0.10 0.23
0.08 0.08 0.08 0.10 0.11 0.08 0.07 0.10 0.15 0.09 0.06 0.09 0.04 0.04 0.04 0.07 0.28 0.13 0.26 0.18 0.11 0.12 0.30 0.28 0.20 0.05 0.07 0.09 0.26 0.18 0.08 0.14 0.08 0.15 0.16 0.11 0.06 0.00 0.00 0.00 0.00 0.04 0.11 0.13 0.24
0.08 0.06 0.07 0.08 0.08 0.07 0.04 0.03 0.08 0.04 0.04 0.03 0.02 0.01 0.01 0.02 0.01 0.08 0.03 0.06 0.04 0.28 0.32 0.28 0.12 0.03 0.03 0.05 0.17 0.22 0.15 0.16 0.21 0.07 0.06 0.10 0.18 0.02 0.00 0.00 0.00 0.01 0.05 0.09 0.20
0.08 0.05 0.05 0.07 0.08 0.05 0.01 0.01 0.02 0.04 0.06 0.02 0.02 0.00 0.01 0.01 0.00 0.03 0.01 0.05 0.06 0.34 0.37 0.37 0.13 0.02 0.03 0.07 0.15 0.10 0.21 0.22 0.17 0.07 0.03 0.06 0.13 0.15 0.00 0.00 0.02 0.04 0.03 0.08 0.08
0.06 0.04 0.04 0.05 0.06 0.05 0.00 0.00 0.00 0.00 0.00 0.00 0.00 0.00 0.00 0.00 0.01 0.02 0.00 0.03 0.08 0.28 0.43 0.40 0.08 0.03 0.02 0.09 0.12 0.10 0.28 0.31 0.17 0.08 0.10 0.10 0.27 0.26 0.02 0.00 0.01 0.03 0.04 0.02 0.05
0.04 0.04 0.03 0.03 0.03 0.04 0.01 0.00 0.00 0.00 0.00 0.00 0.00 0.00 0.01 0.00 0.00 0.00 0.00 0.01 0.07 0.18 0.30 0.45 0.16 0.05 0.03 0.03 0.15 0.22 0.20 0.28 0.13 0.04 0.06 0.10 0.10 0.05 0.08 0.00 0.00 0.00 0.01 0.02 0.01
0.04 0.02 0.02 0.01 0.01 0.03 0.00 0.00 0.00 0.00 0.00 0.00 0.00 0.01 0.00 0.00 0.00 0.00 0.00 0.02 0.10 0.24 0.34 0.69 0.33 0.08 0.07 0.10 0.16 0.18 0.06 0.06 0.12 0.06 0.03 0.02 0.01 0.03 0.15 0.05 0.00 0.00 0.00 0.00 0.01
0.03 0.02 0.01 0.01 0.00 0.02 0.00 0.00 0.00 0.00 0.00 0.00 0.00 0.01 0.00 0.01 0.00 0.00 0.01 0.01 0.10 0.34 0.68 1.21 0.35 0.09 0.05 0.07 0.05 0.03 0.01 0.01 0.03 0.04 0.01 0.02 0.00 0.00 0.05 0.15 0.01 0.00 0.00 0.00 0.00
0.02 0.02 0.02 0.01 0.00 0.00 0.00 0.00 0.00 0.01 0.00 0.00 0.01 0.00 0.00 0.01 0.02 0.01 0.01 0.05 0.15 0.44 0.86 1.41 0.23 0.05 0.00 0.01 0.00 0.01 0.01 0.01 0.00 0.01 0.02 0.00 0.00 0.00 0.00 0.09 0.07 0.00 0.00 0.00 0.00
0.02 0.02 0.01 0.01 0.00 0.00 0.00 0.00 0.00 0.00 0.00 0.01 0.01 0.03 0.05 0.00 0.06 0.07 0.04 0.15 0.25 0.41 0.83 1.01 0.16 0.01 0.00 0.01 0.01 0.01 0.01 0.01 0.00 0.00 0.02 0.00 0.00 0.00 0.00 0.01 0.02 0.01 0.00 0.00 0.00
0.01 0.02 0.01 0.00 0.00 0.00 0.00 0.00 0.00 0.00 0.03 0.12 0.11 0.06 0.02 0.02 0.17 0.24 0.10 0.17 0.21 0.51 0.72 0.60 0.11 0.00 0.01 0.02 0.02 0.01 0.00 0.01 0.00 0.00 0.01 0.00 0.00 0.00 0.00 0.00 0.00 0.01 0.00 0.00 0.00
0.01 0.02 0.01 0.00 0.00 0.00 0.00 0.00 0.00 0.00 0.07 0.22 0.18 0.10 0.06 0.09 0.39 0.23 0.14 0.32 0.19 0.44 0.59 0.33 0.04 0.00 0.02 0.02 0.00 0.01 0.00 0.01 0.00 0.00 0.01 0.00 0.00 0.00 0.00 0.00 0.00 0.00 0.00 0.00 0.00
0.01 0.01 0.00 0.00 0.00 0.00 0.00 0.00 0.00 0.00 0.16 0.37 0.22 0.24 0.17 0.07 0.05 0.13 0.23 0.34 0.11 0.33 0.53 0.30 0.03 0.00 0.01 0.01 0.01 0.02 0.00 0.00 0.00 0.01 0.01 0.00 0.00 0.00 0.00 0.00 0.00 0.00 0.00 0.00 0.00
0.00 0.00 0.00 0.00 0.00 0.00 0.00 0.00 0.00 0.00 0.08 0.24 0.40 0.20 0.06 0.04 0.06 0.12 0.33 0.27 0.11 0.16 0.22 0.12 0.02 0.01 0.01 0.09 0.03 0.03 0.02 0.01 0.01 0.02 0.02 0.00 0.00 0.00 0.00 0.00 0.00 0.00 0.00 0.00 0.00
0.00 0.00 0.00 0.00 0.00 0.00 0.00 0.00 0.00 0.00 0.00 0.01 0.15 0.17 0.12 0.12 0.08 0.16 0.23 0.09 0.10 0.10 0.29 0.15 0.06 0.02 0.03 0.23 0.27 0.07 0.06 0.12 0.11 0.10 0.02 0.00 0.00 0.00 0.00 0.00 0.00 0.00 0.00 0.00 0.00
0.00 0.00 0.00 0.00 0.00 0.00 0.00 0.00 0.00 0.00 0.00 0.00 0.00 0.03 0.06 0.06 0.08 0.14 0.07 0.02 0.00 0.02 0.11 0.14 0.12 0.01 0.01 0.10 0.34 0.16 0.04 0.04 0.03 0.01 0.00 0.00 0.00 0.00 0.00 0.00 0.00 0.00 0.00 0.00 0.00
0.00 0.00 0.00 0.00 0.00 0.00 0.00 0.00 0.00 0.00 0.00 0.00 0.00 0.01 0.02 0.03 0.03 0.07 0.05 0.01 0.01 0.01 0.07 0.07 0.04 0.00 0.01 0.01 0.18 0.32 0.12 0.01 0.03 0.01 0.00 0.00 0.00 0.00 0.00 0.00 0.00 0.00 0.00 0.00 0.00
0.00 0.00 0.00 0.00 0.00 0.00 0.00 0.00 0.00 0.00 0.00 0.00 0.00 0.00 0.01 0.01 0.01 0.01 0.00 0.00 0.00 0.00 0.02 0.07 0.13 0.05 0.03 0.04 0.08 0.20 0.09 0.08 0.05 0.02 0.00 0.00 0.00 0.00 0.00 0.00 0.00 0.00 0.00 0.00 0.00
0.00 0.00 0.00 0.00 0.00 0.00 0.00 0.00 0.00 0.00 0.00 0.00 0.00 0.00 0.00 0.00 0.01 0.01 0.00 0.00 0.00 0.00 0.01 0.02 0.06 0.14 0.15 0.12 0.06 0.09 0.16 0.05 0.03 0.00 0.00 0.00 0.00 0.00 0.00 0.00 0.00 0.00 0.00 0.00 0.00
0.00 0.00 0.00 0.00 0.00 0.00 0.00 0.00 0.00 0.00 0.00 0.00 0.00 0.00 0.00 0.00 0.01 0.01 0.01 0.03 0.01 0.00 0.01 0.01 0.06 0.07 0.04 0.01 0.01 0.02 0.03 0.05 0.04 0.01 0.00 0.00 0.00 0.00 0.00 0.00 0.00 0.00 0.00 0.00 0.00
0.00 0.00 0.00 0.00 0.00 0.00 0.00 0.00 0.00 0.00 0.00 0.00 0.00 0.00 0.00 0.00 0.00 0.00 0.01 0.00 0.03 0.06 0.07 0.03 0.10 0.12 0.16 0.11 0.04 0.05 0.02 0.03 0.03 0.05 0.03 0.00 0.00 0.00 0.00 0.00 0.00 0.00 0.00 0.00 0.00
0.00 0.00 0.00 0.00 0.00 0.00 0.00 0.00 0.00 0.00 0.00 0.00 0.00 0.00 0.00 0.00 0.00 0.01 0.02 0.03 0.01 0.07 0.18 0.27 0.13 0.02 0.04 0.03 0.00 0.01 0.00 0.01 0.06 0.11 0.02 0.00 0.00 0.00 0.00 0.00 0.00 0.00 0.00 0.00 0.00
0.00 0.00 0.00 0.00 0.00 0.00 0.00 0.00 0.00 0.00 0.00 0.00 0.00 0.00 0.00 0.00 0.00 0.00 0.02 0.03 0.05 0.05 0.17 0.60 0.60 0.10 0.02 0.01 0.01 0.01 0.00 0.00 0.02 0.02 0.02 0.00 0.00 0.00 0.00 0.00 0.00 0.00 0.00 0.00 0.00
0.00 0.00 0.00 0.00 0.00 0.00 0.00 0.00 0.00 0.00 0.00 0.00 0.00 0.00 0.00 0.01 0.03 0.05 0.07 0.10 0.09 0.08 0.19 0.33 0.38 0.27 0.22 0.14 0.08 0.02 0.00 0.00 0.00 0.00 0.00 0.00 0.00 0.00 0.00 0.00 0.00 0.00 0.00 0.00 0.00
0.00 0.00 0.00 0.00 0.00 0.00 0.00 0.00 0.00 0.00 0.00 0.00 0.00 0.00 0.01 0.03 0.04 0.04 0.07 0.11 0.22 0.25 0.15 0.32 0.36 0.28 0.16 0.05 0.19 0.18 0.00 0.00 0.00 0.00 0.00 0.00 0.00 0.00 0.00 0.00 0.00 0.00 0.00 0.00 0.00